Time,TemperatureF,DewpointF,PressureIn,WindDirection,WindDirectionDegrees,WindSpeedMPH,WindSpeedGustMPH,Humidity,HourlyPrecipIn,Conditions,Clouds,dailyrainin,SoftwareType,DateUTC
2013-10-06 00:11:00,66.6,66.0,29.87,South,187,0.0,3.0,99,0.00,,,0.00,weatherlink.com 1.10,2013-10-06 04:11:00,
2013-10-06 00:26:00,66.6,66.0,29.86,ESE,120,0.0,1.0,99,0.00,,,0.00,weatherlink.com 1.10,2013-10-06 04:26:00,
2013-10-06 00:41:00,66.6,66.0,29.86,East,91,0.0,2.0,98,0.00,,,0.00,weatherlink.com 1.10,2013-10-06 04:41:00,
2013-10-06 00:56:00,66.6,66.0,29.85,North,360,0.0,0.0,98,0.00,,,0.00,weatherlink.com 1.10,2013-10-06 04:56:00,
2013-10-06 01:11:00,66.4,66.0,29.85,WNW,288,0.0,4.0,98,0.00,,,0.00,weatherlink.com 1.10,2013-10-06 05:11:00,
2013-10-06 01:26:00,66.4,66.0,29.84,South,169,0.0,2.0,98,0.00,,,0.00,weatherlink.com 1.10,2013-10-06 05:26:00,
2013-10-06 01:42:00,66.5,66.0,29.83,WSW,250,0.0,1.0,98,0.00,,,0.00,weatherlink.com 1.10,2013-10-06 05:42:00,
2013-10-06 01:57:00,66.6,66.0,29.82,NE,36,0.0,2.0,98,0.00,,,0.00,weatherlink.com 1.10,2013-10-06 05:57:00,
2013-10-06 02:12:00,66.6,66.0,29.82,NNW,341,0.0,1.0,98,0.00,,,0.00,weatherlink.com 1.10,2013-10-06 06:12:00,
2013-10-06 02:27:00,66.7,66.0,29.83,ESE,118,0.0,2.0,98,0.00,,,0.00,weatherlink.com 1.10,2013-10-06 06:27:00,
2013-10-06 02:42:00,66.6,66.0,29.83,North,350,0.0,2.0,98,0.00,,,0.00,weatherlink.com 1.10,2013-10-06 06:42:00,
2013-10-06 02:57:00,66.4,66.0,29.83,East,82,0.0,4.0,98,0.00,,,0.00,weatherlink.com 1.10,2013-10-06 06:57:00,
2013-10-06 03:12:00,66.2,66.0,29.84,SW,217,0.0,3.0,98,0.00,,,0.00,weatherlink.com 1.10,2013-10-06 07:12:00,
2013-10-06 03:27:00,66.1,66.0,29.83,East,84,1.0,3.0,98,0.00,,,0.00,weatherlink.com 1.10,2013-10-06 07:27:00,
2013-10-06 03:42:00,66.0,66.0,29.82,ESE,115,0.0,1.0,98,0.00,,,0.00,weatherlink.com 1.10,2013-10-06 07:42:00,
2013-10-06 03:57:00,65.8,65.0,29.80,WSW,239,0.0,1.0,98,0.00,,,0.00,weatherlink.com 1.10,2013-10-06 07:57:00,
2013-10-06 04:12:00,65.8,65.0,29.80,SE,143,0.0,1.0,98,0.00,,,0.00,weatherlink.com 1.10,2013-10-06 08:12:00,
2013-10-06 04:27:00,65.8,65.0,29.80,SE,127,0.0,4.0,98,0.00,,,0.00,weatherlink.com 1.10,2013-10-06 08:27:00,
2013-10-06 04:42:00,65.7,65.0,29.80,ESE,121,1.0,4.0,98,0.00,,,0.00,weatherlink.com 1.10,2013-10-06 08:42:00,
2013-10-06 04:57:00,65.8,65.0,29.80,South,179,1.0,4.0,98,0.00,,,0.00,weatherlink.com 1.10,2013-10-06 08:57:00,
2013-10-06 05:12:00,65.8,65.0,29.80,SSE,152,0.0,6.0,98,0.00,,,0.00,weatherlink.com 1.10,2013-10-06 09:12:00,
2013-10-06 05:27:00,65.9,65.0,29.81,ESE,122,2.0,3.0,97,0.00,,,0.00,weatherlink.com 1.10,2013-10-06 09:27:00,
2013-10-06 05:42:00,65.9,65.0,29.80,South,174,0.0,1.0,97,0.00,,,0.00,weatherlink.com 1.10,2013-10-06 09:42:00,
2013-10-06 05:57:00,65.9,65.0,29.80,ESE,109,0.0,1.0,97,0.00,,,0.00,weatherlink.com 1.10,2013-10-06 09:57:00,
2013-10-06 06:12:00,66.0,65.0,29.80,WSW,246,0.0,1.0,97,0.00,,,0.00,weatherlink.com 1.10,2013-10-06 10:12:00,
2013-10-06 06:27:00,65.9,65.0,29.80,South,189,0.0,2.0,97,0.00,,,0.00,weatherlink.com 1.10,2013-10-06 10:27:00,
2013-10-06 06:42:00,65.9,65.0,29.80,ESE,114,0.0,2.0,97,0.00,,,0.00,weatherlink.com 1.10,2013-10-06 10:42:00,
2013-10-06 06:57:00,65.8,65.0,29.80,West,264,0.0,1.0,97,0.00,,,0.00,weatherlink.com 1.10,2013-10-06 10:57:00,
2013-10-06 07:12:00,64.3,62.0,29.81,NW,309,2.0,4.0,92,0.00,,,0.00,weatherlink.com 1.10,2013-10-06 11:12:00,
2013-10-06 07:27:00,60.8,59.0,29.80,West,270,0.0,4.0,94,0.00,,,0.00,weatherlink.com 1.10,2013-10-06 11:27:00,
2013-10-06 07:42:00,59.9,59.0,29.80,WNW,291,1.0,5.0,96,0.00,,,0.00,weatherlink.com 1.10,2013-10-06 11:42:00,
2013-10-06 07:57:00,59.2,58.0,29.79,West,262,0.0,3.0,96,0.00,,,0.00,weatherlink.com 1.10,2013-10-06 11:57:00,
2013-10-06 08:12:00,58.9,58.0,29.79,West,266,0.0,2.0,97,0.00,,,0.00,weatherlink.com 1.10,2013-10-06 12:12:00,
2013-10-06 08:27:00,58.5,58.0,29.79,West,277,1.0,2.0,97,0.00,,,0.00,weatherlink.com 1.10,2013-10-06 12:27:00,
2013-10-06 08:42:00,58.2,57.0,29.80,WNW,286,0.0,2.0,97,0.00,,,0.00,weatherlink.com 1.10,2013-10-06 12:42:00,
2013-10-06 08:57:00,58.0,58.0,29.79,West,278,0.0,2.0,98,0.00,,,0.00,weatherlink.com 1.10,2013-10-06 12:57:00,
2013-10-06 09:12:00,57.8,57.0,29.80,West,271,0.0,3.0,98,0.00,,,0.00,weatherlink.com 1.10,2013-10-06 13:12:00,
2013-10-06 09:27:00,57.2,56.0,29.80,West,269,1.0,2.0,97,0.00,,,0.00,weatherlink.com 1.10,2013-10-06 13:27:00,
2013-10-06 09:42:00,56.6,56.0,29.80,NW,308,0.0,2.0,98,0.00,,,0.00,weatherlink.com 1.10,2013-10-06 13:42:00,
2013-10-06 09:57:00,56.2,56.0,29.80,WNW,295,0.0,3.0,98,0.00,,,0.00,weatherlink.com 1.10,2013-10-06 13:57:00,
2013-10-06 10:12:00,55.5,55.0,29.81,WNW,292,0.0,2.0,98,0.00,,,0.00,weatherlink.com 1.10,2013-10-06 14:12:00,
2013-10-06 10:27:00,55.2,55.0,29.80,West,281,0.0,1.0,98,0.00,,,0.00,weatherlink.com 1.10,2013-10-06 14:27:00,
2013-10-06 10:42:00,55.2,55.0,29.80,West,270,0.0,1.0,99,0.00,,,0.00,weatherlink.com 1.10,2013-10-06 14:42:00,
2013-10-06 10:57:00,55.3,55.0,29.80,West,270,0.0,1.0,99,0.00,,,0.00,weatherlink.com 1.10,2013-10-06 14:57:00,
2013-10-06 11:12:00,54.8,54.0,29.81,WNW,285,0.0,2.0,98,0.00,,,0.00,weatherlink.com 1.10,2013-10-06 15:12:00,
2013-10-06 11:29:00,54.5,54.0,29.82,West,274,0.0,2.0,98,0.00,,,0.00,weatherlink.com 1.10,2013-10-06 15:29:00,
2013-10-06 11:42:00,53.8,53.0,29.82,WNW,303,1.0,4.0,97,0.00,,,0.00,weatherlink.com 1.10,2013-10-06 15:42:00,
2013-10-06 11:57:00,53.1,53.0,29.81,West,281,1.0,2.0,98,0.00,,,0.00,weatherlink.com 1.10,2013-10-06 15:57:00,
2013-10-06 12:13:00,53.0,53.0,29.81,West,269,0.0,1.0,98,0.00,,,0.00,weatherlink.com 1.10,2013-10-06 16:13:00,
2013-10-06 12:28:00,52.5,52.0,29.82,West,274,0.0,1.0,97,0.00,,,0.00,weatherlink.com 1.10,2013-10-06 16:28:00,
2013-10-06 12:43:00,51.8,51.0,29.82,West,274,0.0,0.0,97,0.00,,,0.00,weatherlink.com 1.10,2013-10-06 16:43:00,
2013-10-06 12:58:00,51.8,51.0,29.81,West,276,0.0,1.0,97,0.00,,,0.00,weatherlink.com 1.10,2013-10-06 16:58:00,
2013-10-06 13:13:00,52.1,51.0,29.80,West,274,0.0,0.0,97,0.00,,,0.00,weatherlink.com 1.10,2013-10-06 17:13:00,
2013-10-06 13:28:00,52.2,51.0,29.79,West,274,0.0,0.0,95,0.00,,,0.00,weatherlink.com 1.10,2013-10-06 17:28:00,
2013-10-06 13:43:00,52.7,52.0,29.78,West,276,0.0,0.0,96,0.00,,,0.00,weatherlink.com 1.10,2013-10-06 17:43:00,
2013-10-06 13:58:00,53.5,52.0,29.78,West,267,1.0,1.0,96,0.00,,,0.00,weatherlink.com 1.10,2013-10-06 17:58:00,
2013-10-06 14:13:00,54.5,53.0,29.78,WNW,284,1.0,2.0,96,0.00,,,0.00,weatherlink.com 1.10,2013-10-06 18:13:00,
2013-10-06 14:28:00,55.7,54.0,29.78,West,276,0.0,2.0,92,0.00,,,0.00,weatherlink.com 1.10,2013-10-06 18:28:00,
2013-10-06 14:43:00,56.2,53.0,29.77,West,281,1.0,2.0,88,0.00,,,0.00,weatherlink.com 1.10,2013-10-06 18:43:00,
2013-10-06 14:58:00,57.9,54.0,29.76,West,262,0.0,3.0,85,0.00,,,0.00,weatherlink.com 1.10,2013-10-06 18:58:00,
2013-10-06 15:13:00,59.0,53.0,29.76,WNW,295,1.0,1.0,81,0.00,,,0.00,weatherlink.com 1.10,2013-10-06 19:13:00,
2013-10-06 15:28:00,59.3,52.0,29.76,SE,134,1.0,2.0,78,0.00,,,0.00,weatherlink.com 1.10,2013-10-06 19:28:00,
2013-10-06 15:43:00,59.6,53.0,29.75,SSW,212,0.0,1.0,78,0.00,,,0.00,weatherlink.com 1.10,2013-10-06 19:43:00,
2013-10-06 15:58:00,59.3,52.0,29.75,SE,132,0.0,1.0,77,0.00,,,0.00,weatherlink.com 1.10,2013-10-06 19:58:00,
2013-10-06 16:13:00,60.0,53.0,29.75,South,174,0.0,1.0,78,0.00,,,0.00,weatherlink.com 1.10,2013-10-06 20:13:00,
2013-10-06 16:28:00,59.9,52.0,29.75,West,277,0.0,1.0,76,0.00,,,0.00,weatherlink.com 1.10,2013-10-06 20:28:00,
2013-10-06 16:43:00,60.6,53.0,29.75,West,266,1.0,2.0,77,0.00,,,0.00,weatherlink.com 1.10,2013-10-06 20:43:00,
2013-10-06 16:58:00,60.3,53.0,29.75,WNW,297,0.0,2.0,76,0.00,,,0.00,weatherlink.com 1.10,2013-10-06 20:58:00,
2013-10-06 17:13:00,61.2,52.0,29.74,WNW,297,0.0,0.0,73,0.00,,,0.00,weatherlink.com 1.10,2013-10-06 21:13:00,
2013-10-06 17:28:00,60.9,53.0,29.74,West,274,0.0,1.0,74,0.00,,,0.00,weatherlink.com 1.10,2013-10-06 21:28:00,
2013-10-06 17:43:00,60.6,52.0,29.75,West,269,0.0,1.0,72,0.00,,,0.00,weatherlink.com 1.10,2013-10-06 21:43:00,
2013-10-06 17:58:00,60.4,51.0,29.75,West,277,0.0,1.0,70,0.00,,,0.00,weatherlink.com 1.10,2013-10-06 21:58:00,
2013-10-06 18:13:00,60.2,50.0,29.76,West,259,0.0,1.0,69,0.00,,,0.00,weatherlink.com 1.10,2013-10-06 22:13:00,
2013-10-06 18:28:00,60.0,50.0,29.75,West,278,0.0,0.0,69,0.00,,,0.00,weatherlink.com 1.10,2013-10-06 22:28:00,
2013-10-06 18:43:00,59.7,51.0,29.76,WNW,284,0.0,0.0,73,0.00,,,0.00,weatherlink.com 1.10,2013-10-06 22:43:00,
2013-10-06 18:58:00,59.1,53.0,29.76,WNW,284,0.0,0.0,80,0.00,,,0.00,weatherlink.com 1.10,2013-10-06 22:58:00,
2013-10-06 19:13:00,58.5,53.0,29.77,WNW,285,0.0,0.0,81,0.00,,,0.00,weatherlink.com 1.10,2013-10-06 23:13:00,
2013-10-06 19:28:00,58.0,53.0,29.77,WNW,284,0.0,0.0,83,0.00,,,0.00,weatherlink.com 1.10,2013-10-06 23:28:00,
2013-10-06 19:43:00,57.5,51.0,29.78,WNW,293,0.0,1.0,78,0.00,,,0.00,weatherlink.com 1.10,2013-10-06 23:43:00,
2013-10-06 19:58:00,57.5,49.0,29.78,West,279,1.0,1.0,74,0.00,,,0.00,weatherlink.com 1.10,2013-10-06 23:58:00,
2013-10-06 20:13:00,57.0,48.0,29.79,West,278,0.0,3.0,72,0.00,,,0.00,weatherlink.com 1.10,2013-10-07 00:13:00,
2013-10-06 20:28:00,56.1,46.0,29.80,West,281,1.0,4.0,70,0.00,,,0.00,weatherlink.com 1.10,2013-10-07 00:28:00,
2013-10-06 20:43:00,55.2,45.0,29.81,WNW,295,1.0,4.0,69,0.00,,,0.00,weatherlink.com 1.10,2013-10-07 00:43:00,
2013-10-06 20:58:00,54.5,44.0,29.81,WNW,293,2.0,10.0,69,0.00,,,0.00,weatherlink.com 1.10,2013-10-07 00:58:00,
2013-10-06 21:13:00,53.9,44.0,29.82,WNW,286,4.0,5.0,70,0.00,,,0.00,weatherlink.com 1.10,2013-10-07 01:13:00,
2013-10-06 21:28:00,53.4,45.0,29.82,WNW,291,0.0,4.0,72,0.00,,,0.00,weatherlink.com 1.10,2013-10-07 01:28:00,
2013-10-06 21:43:00,52.6,44.0,29.82,West,273,2.0,4.0,72,0.00,,,0.00,weatherlink.com 1.10,2013-10-07 01:43:00,
2013-10-06 21:58:00,52.0,43.0,29.82,West,278,0.0,5.0,71,0.00,,,0.00,weatherlink.com 1.10,2013-10-07 01:58:00,
2013-10-06 22:13:00,51.5,43.0,29.83,WNW,291,3.0,7.0,72,0.00,,,0.00,weatherlink.com 1.10,2013-10-07 02:13:00,
2013-10-06 22:28:00,50.7,43.0,29.84,WNW,288,2.0,5.0,74,0.00,,,0.00,weatherlink.com 1.10,2013-10-07 02:28:00,
2013-10-06 22:43:00,49.8,43.0,29.83,West,276,0.0,4.0,76,0.00,,,0.00,weatherlink.com 1.10,2013-10-07 02:43:00,
2013-10-06 22:58:00,49.2,42.0,29.83,West,281,0.0,2.0,77,0.00,,,0.00,weatherlink.com 1.10,2013-10-07 02:58:00,
2013-10-06 23:13:00,48.7,43.0,29.84,West,267,0.0,2.0,80,0.00,,,0.00,weatherlink.com 1.10,2013-10-07 03:13:00,
2013-10-06 23:28:00,48.1,43.0,29.83,West,269,0.0,1.0,82,0.00,,,0.00,weatherlink.com 1.10,2013-10-07 03:28:00,
2013-10-06 23:43:00,47.5,43.0,29.83,WNW,284,0.0,1.0,83,0.00,,,0.00,weatherlink.com 1.10,2013-10-07 03:43:00,
2013-10-06 23:58:00,47.1,43.0,29.83,WSW,246,0.0,1.0,84,0.00,,,0.00,weatherlink.com 1.10,2013-10-07 03:58:00,